Time,TemperatureF,DewpointF,PressureIn,WindDirection,WindDirectionDegrees,WindSpeedMPH,WindSpeedGustMPH,Humidity,HourlyPrecipIn,Conditions,Clouds,dailyrainin,SoftwareType,DateUTC
2013-11-03 00:03:00,28.0,-99.9,-100.00,North,-999,-999.0,-999.0,-999,0.00,,,0.19,,2013-11-03 05:03:00,
2013-11-03 00:13:00,28.0,-99.9,-100.00,North,-999,-999.0,-999.0,-999,0.00,,,0.19,,2013-11-03 05:13:00,
2013-11-03 00:23:00,28.0,-99.9,-100.00,North,-999,-999.0,-999.0,-999,0.00,,,0.19,,2013-11-03 05:23:00,
2013-11-03 00:30:00,28.0,-99.9,-100.00,North,-999,-999.0,-999.0,-999,0.00,,,0.19,,2013-11-03 05:30:00,
2013-11-03 00:53:00,28.0,-99.9,-100.00,North,-999,-999.0,-999.0,-999,0.00,,,0.19,,2013-11-03 05:53:00,
2013-11-03 01:03:00,28.0,-99.9,-100.00,North,-999,-999.0,-999.0,-999,0.00,,,0.19,,2013-11-03 06:03:00,
2013-11-03 01:13:00,28.0,-99.9,-100.00,North,-999,-999.0,-999.0,-999,0.00,,,0.19,,2013-11-03 06:13:00,
2013-11-03 01:23:00,28.0,-99.9,-100.00,North,-999,-999.0,-999.0,-999,0.00,,,0.19,,2013-11-03 06:23:00,
2013-11-03 01:30:00,29.0,-99.9,-100.00,North,-999,-999.0,-999.0,-999,0.00,,,0.18,,2013-11-03 06:30:00,
2013-11-03 01:53:00,29.0,-99.9,-100.00,North,-999,-999.0,-999.0,-999,0.00,,,0.18,,2013-11-03 06:53:00,
2013-11-03 01:02:00,29.0,-99.9,-100.00,North,-999,-999.0,-999.0,-999,0.00,,,0.18,,2013-11-03 07:02:00,
2013-11-03 01:11:00,29.0,-99.9,-100.00,North,-999,-999.0,-999.0,-999,0.00,,,0.18,,2013-11-03 07:11:00,
2013-11-03 01:22:00,29.0,-99.9,-100.00,North,-999,-999.0,-999.0,-999,0.00,,,0.18,,2013-11-03 07:22:00,
2013-11-03 01:30:00,30.0,-99.9,-100.00,North,-999,-999.0,-999.0,-999,0.00,,,0.18,,2013-11-03 07:30:00,
2013-11-03 01:52:00,30.0,-99.9,-100.00,North,-999,-999.0,-999.0,-999,0.00,,,0.18,,2013-11-03 07:52:00,
2013-11-03 02:02:00,30.0,-99.9,-100.00,North,-999,-999.0,-999.0,-999,0.00,,,0.18,,2013-11-03 08:02:00,
2013-11-03 02:11:00,30.0,-99.9,-100.00,North,-999,-999.0,-999.0,-999,0.00,,,0.18,,2013-11-03 08:11:00,
2013-11-03 02:22:00,30.0,-99.9,-100.00,North,-999,-999.0,-999.0,-999,0.00,,,0.18,,2013-11-03 08:22:00,
2013-11-03 02:30:00,30.0,-99.9,-100.00,North,-999,-999.0,-999.0,-999,0.00,,,0.18,,2013-11-03 08:30:00,
2013-11-03 02:52:00,30.0,-99.9,-100.00,North,-999,-999.0,-999.0,-999,0.00,,,0.18,,2013-11-03 08:52:00,
2013-11-03 03:02:00,30.0,-99.9,-100.00,North,-999,-999.0,-999.0,-999,0.00,,,0.18,,2013-11-03 09:02:00,
2013-11-03 03:12:00,30.0,-99.9,-100.00,North,-999,-999.0,-999.0,-999,0.00,,,0.18,,2013-11-03 09:12:00,
2013-11-03 03:22:00,30.0,-99.9,-100.00,North,-999,-999.0,-999.0,-999,0.00,,,0.18,,2013-11-03 09:22:00,
2013-11-03 03:30:00,30.0,-99.9,-100.00,North,-999,-999.0,-999.0,-999,0.00,,,0.18,,2013-11-03 09:30:00,
2013-11-03 03:53:00,30.0,-99.9,-100.00,North,-999,-999.0,-999.0,-999,0.00,,,0.18,,2013-11-03 09:53:00,
2013-11-03 04:03:00,30.0,-99.9,-100.00,North,-999,-999.0,-999.0,-999,0.00,,,0.18,,2013-11-03 10:03:00,
2013-11-03 04:13:00,30.0,-99.9,-100.00,North,-999,-999.0,-999.0,-999,0.00,,,0.18,,2013-11-03 10:13:00,
2013-11-03 04:23:00,30.0,-99.9,-100.00,North,-999,-999.0,-999.0,-999,0.00,,,0.18,,2013-11-03 10:23:00,
2013-11-03 04:30:00,29.0,-99.9,-100.00,North,-999,-999.0,-999.0,-999,0.00,,,0.18,,2013-11-03 10:30:00,
2013-11-03 04:53:00,29.0,-99.9,-100.00,North,-999,-999.0,-999.0,-999,0.00,,,0.18,,2013-11-03 10:53:00,
2013-11-03 05:02:00,29.0,-99.9,-100.00,North,-999,-999.0,-999.0,-999,0.00,,,0.18,,2013-11-03 11:02:00,
2013-11-03 05:12:00,29.0,-99.9,-100.00,North,-999,-999.0,-999.0,-999,0.00,,,0.18,,2013-11-03 11:12:00,
2013-11-03 05:22:00,29.0,-99.9,-100.00,North,-999,-999.0,-999.0,-999,0.00,,,0.18,,2013-11-03 11:22:00,
2013-11-03 05:30:00,27.0,-99.9,-100.00,North,-999,-999.0,-999.0,-999,0.00,,,0.18,,2013-11-03 11:30:00,
2013-11-03 05:52:00,27.0,-99.9,-100.00,North,-999,-999.0,-999.0,-999,0.00,,,0.18,,2013-11-03 11:52:00,
2013-11-03 06:02:00,27.0,-99.9,-100.00,North,-999,-999.0,-999.0,-999,0.00,,,0.18,,2013-11-03 12:02:00,
2013-11-03 06:12:00,27.0,-99.9,-100.00,North,-999,-999.0,-999.0,-999,0.00,,,0.18,,2013-11-03 12:12:00,
2013-11-03 06:22:00,27.0,-99.9,-100.00,North,-999,-999.0,-999.0,-999,0.00,,,0.18,,2013-11-03 12:22:00,
2013-11-03 06:30:00,29.0,-99.9,-100.00,North,-999,-999.0,-999.0,-999,0.00,,,0.17,,2013-11-03 12:30:00,
2013-11-03 06:52:00,29.0,-99.9,-100.00,North,-999,-999.0,-999.0,-999,0.00,,,0.17,,2013-11-03 12:52:00,
2013-11-03 07:02:00,29.0,-99.9,-100.00,North,-999,-999.0,-999.0,-999,0.00,,,0.17,,2013-11-03 13:02:00,
2013-11-03 07:12:00,29.0,-99.9,-100.00,North,-999,-999.0,-999.0,-999,0.00,,,0.17,,2013-11-03 13:12:00,
2013-11-03 07:22:00,29.0,-99.9,-100.00,North,-999,-999.0,-999.0,-999,0.00,,,0.17,,2013-11-03 13:22:00,
2013-11-03 07:30:00,31.0,-99.9,-100.00,North,-999,-999.0,-999.0,-999,0.00,,,0.17,,2013-11-03 13:30:00,
2013-11-03 07:52:00,31.0,-99.9,-100.00,North,-999,-999.0,-999.0,-999,0.00,,,0.17,,2013-11-03 13:52:00,
2013-11-03 08:02:00,31.0,-99.9,-100.00,North,-999,-999.0,-999.0,-999,0.00,,,0.17,,2013-11-03 14:02:00,
2013-11-03 08:12:00,31.0,-99.9,-100.00,North,-999,-999.0,-999.0,-999,0.00,,,0.17,,2013-11-03 14:12:00,
2013-11-03 08:23:00,31.0,-99.9,-100.00,North,-999,-999.0,-999.0,-999,0.00,,,0.17,,2013-11-03 14:23:00,
2013-11-03 08:30:00,33.0,-99.9,-100.00,North,-999,-999.0,-999.0,-999,0.00,,,0.17,,2013-11-03 14:30:00,
2013-11-03 08:52:00,33.0,-99.9,-100.00,North,-999,-999.0,-999.0,-999,0.00,,,0.17,,2013-11-03 14:52:00,
2013-11-03 09:02:00,33.0,-99.9,-100.00,North,-999,-999.0,-999.0,-999,0.00,,,0.17,,2013-11-03 15:02:00,
2013-11-03 09:11:00,33.0,-99.9,-100.00,North,-999,-999.0,-999.0,-999,0.00,,,0.17,,2013-11-03 15:11:00,
2013-11-03 09:22:00,33.0,-99.9,-100.00,North,-999,-999.0,-999.0,-999,0.00,,,0.17,,2013-11-03 15:22:00,
2013-11-03 09:30:00,37.0,-99.9,-100.00,North,-999,-999.0,-999.0,-999,0.00,,,0.15,,2013-11-03 15:30:00,
2013-11-03 09:53:00,37.0,-99.9,-100.00,North,-999,-999.0,-999.0,-999,0.00,,,0.15,,2013-11-03 15:53:00,
2013-11-03 10:04:00,37.0,-99.9,-100.00,North,-999,-999.0,-999.0,-999,0.00,,,0.15,,2013-11-03 16:04:00,
2013-11-03 10:14:00,37.0,-99.9,-100.00,North,-999,-999.0,-999.0,-999,0.00,,,0.15,,2013-11-03 16:14:00,
2013-11-03 10:23:00,37.0,-99.9,-100.00,North,-999,-999.0,-999.0,-999,0.00,,,0.15,,2013-11-03 16:23:00,
2013-11-03 10:30:00,40.0,-99.9,-100.00,North,-999,-999.0,-999.0,-999,0.00,,,0.13,,2013-11-03 16:30:00,
2013-11-03 10:53:00,40.0,-99.9,-100.00,North,-999,-999.0,-999.0,-999,0.00,,,0.13,,2013-11-03 16:53:00,
2013-11-03 11:03:00,40.0,-99.9,-100.00,North,-999,-999.0,-999.0,-999,0.00,,,0.13,,2013-11-03 17:03:00,
2013-11-03 11:13:00,40.0,-99.9,-100.00,North,-999,-999.0,-999.0,-999,0.00,,,0.13,,2013-11-03 17:13:00,
2013-11-03 11:23:00,40.0,-99.9,-100.00,North,-999,-999.0,-999.0,-999,0.00,,,0.13,,2013-11-03 17:23:00,
2013-11-03 11:30:00,44.0,-99.9,-100.00,North,-999,-999.0,-999.0,-999,0.03,,,0.15,,2013-11-03 17:30:00,
2013-11-03 11:53:00,44.0,-99.9,-100.00,North,-999,-999.0,-999.0,-999,0.03,,,0.15,,2013-11-03 17:53:00,
2013-11-03 12:02:00,44.0,-99.9,-100.00,North,-999,-999.0,-999.0,-999,0.03,,,0.15,,2013-11-03 18:02:00,
2013-11-03 12:12:00,44.0,-99.9,-100.00,North,-999,-999.0,-999.0,-999,0.03,,,0.15,,2013-11-03 18:12:00,
2013-11-03 12:24:00,44.0,-99.9,-100.00,North,-999,-999.0,-999.0,-999,0.03,,,0.15,,2013-11-03 18:24:00,
2013-11-03 12:30:00,46.0,-99.9,-100.00,North,-999,-999.0,-999.0,-999,0.06,,,0.20,,2013-11-03 18:30:00,
2013-11-03 12:52:00,46.0,-99.9,-100.00,North,-999,-999.0,-999.0,-999,0.06,,,0.20,,2013-11-03 18:52:00,
2013-11-03 13:02:00,46.0,-99.9,-100.00,North,-999,-999.0,-999.0,-999,0.06,,,0.20,,2013-11-03 19:02:00,
2013-11-03 13:12:00,46.0,-99.9,-100.00,North,-999,-999.0,-999.0,-999,0.06,,,0.20,,2013-11-03 19:12:00,
2013-11-03 13:22:00,46.0,-99.9,-100.00,North,-999,-999.0,-999.0,-999,0.06,,,0.20,,2013-11-03 19:22:00,
2013-11-03 13:30:00,45.0,-99.9,-100.00,North,-999,-999.0,-999.0,-999,0.04,,,0.24,,2013-11-03 19:30:00,
2013-11-03 13:53:00,45.0,-99.9,-100.00,North,-999,-999.0,-999.0,-999,0.04,,,0.24,,2013-11-03 19:53:00,
2013-11-03 14:02:00,45.0,-99.9,-100.00,North,-999,-999.0,-999.0,-999,0.04,,,0.24,,2013-11-03 20:02:00,
2013-11-03 14:12:00,45.0,-99.9,-100.00,North,-999,-999.0,-999.0,-999,0.04,,,0.24,,2013-11-03 20:12:00,
2013-11-03 14:22:00,45.0,-99.9,-100.00,North,-999,-999.0,-999.0,-999,0.04,,,0.24,,2013-11-03 20:22:00,
2013-11-03 14:30:00,43.0,-99.9,-100.00,North,-999,-999.0,-999.0,-999,0.01,,,0.24,,2013-11-03 20:30:00,
2013-11-03 14:53:00,43.0,-99.9,-100.00,North,-999,-999.0,-999.0,-999,0.01,,,0.24,,2013-11-03 20:53:00,
2013-11-03 15:02:00,43.0,-99.9,-100.00,North,-999,-999.0,-999.0,-999,0.01,,,0.24,,2013-11-03 21:02:00,
2013-11-03 15:12:00,43.0,-99.9,-100.00,North,-999,-999.0,-999.0,-999,0.01,,,0.24,,2013-11-03 21:12:00,
2013-11-03 15:22:00,43.0,-99.9,-100.00,North,-999,-999.0,-999.0,-999,0.01,,,0.24,,2013-11-03 21:22:00,
2013-11-03 15:30:00,40.0,-99.9,-100.00,North,-999,-999.0,-999.0,-999,0.02,,,0.26,,2013-11-03 21:30:00,
2013-11-03 15:55:00,40.0,-99.9,-100.00,North,-999,-999.0,-999.0,-999,0.02,,,0.26,,2013-11-03 21:55:00,
2013-11-03 16:03:00,40.0,-99.9,-100.00,North,-999,-999.0,-999.0,-999,0.02,,,0.26,,2013-11-03 22:03:00,
2013-11-03 16:13:00,40.0,-99.9,-100.00,North,-999,-999.0,-999.0,-999,0.02,,,0.26,,2013-11-03 22:13:00,
2013-11-03 16:23:00,40.0,-99.9,-100.00,North,-999,-999.0,-999.0,-999,0.02,,,0.26,,2013-11-03 22:23:00,
2013-11-03 16:30:00,39.0,-99.9,-100.00,North,-999,-999.0,-999.0,-999,0.01,,,0.24,,2013-11-03 22:30:00,
2013-11-03 16:52:00,39.0,-99.9,-100.00,North,-999,-999.0,-999.0,-999,0.01,,,0.24,,2013-11-03 22:52:00,
2013-11-03 17:03:00,39.0,-99.9,-100.00,North,-999,-999.0,-999.0,-999,0.01,,,0.24,,2013-11-03 23:03:00,
2013-11-03 17:12:00,39.0,-99.9,-100.00,North,-999,-999.0,-999.0,-999,0.01,,,0.24,,2013-11-03 23:12:00,
2013-11-03 17:23:00,39.0,-99.9,-100.00,North,-999,-999.0,-999.0,-999,0.01,,,0.24,,2013-11-03 23:23:00,
2013-11-03 17:30:00,39.0,-99.9,-100.00,North,-999,-999.0,-999.0,-999,0.01,,,0.21,,2013-11-03 23:30:00,
2013-11-03 17:53:00,39.0,-99.9,-100.00,North,-999,-999.0,-999.0,-999,0.01,,,0.21,,2013-11-03 23:53:00,
2013-11-03 18:02:00,39.0,-99.9,-100.00,North,-999,-999.0,-999.0,-999,0.01,,,0.21,,2013-11-04 00:02:00,
2013-11-03 18:11:00,39.0,-99.9,-100.00,North,-999,-999.0,-999.0,-999,0.01,,,0.21,,2013-11-04 00:11:00,
2013-11-03 18:22:00,39.0,-99.9,-100.00,North,-999,-999.0,-999.0,-999,0.01,,,0.21,,2013-11-04 00:22:00,
2013-11-03 18:30:00,40.0,-99.9,-100.00,North,-999,-999.0,-999.0,-999,0.01,,,0.19,,2013-11-04 00:30:00,
2013-11-03 18:52:00,40.0,-99.9,-100.00,North,-999,-999.0,-999.0,-999,0.01,,,0.19,,2013-11-04 00:52:00,
2013-11-03 19:02:00,40.0,-99.9,-100.00,North,-999,-999.0,-999.0,-999,0.01,,,0.19,,2013-11-04 01:02:00,
2013-11-03 19:11:00,40.0,-99.9,-100.00,North,-999,-999.0,-999.0,-999,0.01,,,0.19,,2013-11-04 01:11:00,
2013-11-03 19:22:00,40.0,-99.9,-100.00,North,-999,-999.0,-999.0,-999,0.01,,,0.19,,2013-11-04 01:22:00,
2013-11-03 19:30:00,40.0,-99.9,-100.00,North,-999,-999.0,-999.0,-999,0.00,,,0.19,,2013-11-04 01:30:00,
2013-11-03 19:52:00,40.0,-99.9,-100.00,North,-999,-999.0,-999.0,-999,0.00,,,0.19,,2013-11-04 01:52:00,
2013-11-03 20:02:00,40.0,-99.9,-100.00,North,-999,-999.0,-999.0,-999,0.00,,,0.19,,2013-11-04 02:02:00,
2013-11-03 20:12:00,40.0,-99.9,-100.00,North,-999,-999.0,-999.0,-999,0.00,,,0.19,,2013-11-04 02:12:00,
2013-11-03 20:22:00,40.0,-99.9,-100.00,North,-999,-999.0,-999.0,-999,0.00,,,0.19,,2013-11-04 02:22:00,
2013-11-03 20:30:00,40.0,-99.9,-100.00,North,-999,-999.0,-999.0,-999,0.02,,,0.21,,2013-11-04 02:30:00,
2013-11-03 20:53:00,40.0,-99.9,-100.00,North,-999,-999.0,-999.0,-999,0.02,,,0.21,,2013-11-04 02:53:00,
2013-11-03 21:02:00,40.0,-99.9,-100.00,North,-999,-999.0,-999.0,-999,0.02,,,0.21,,2013-11-04 03:02:00,
2013-11-03 21:12:00,40.0,-99.9,-100.00,North,-999,-999.0,-999.0,-999,0.02,,,0.21,,2013-11-04 03:12:00,
2013-11-03 21:22:00,40.0,-99.9,-100.00,North,-999,-999.0,-999.0,-999,0.02,,,0.21,,2013-11-04 03:22:00,
2013-11-03 21:30:00,40.0,-99.9,-100.00,North,-999,-999.0,-999.0,-999,0.03,,,0.24,,2013-11-04 03:30:00,
2013-11-03 21:54:00,40.0,-99.9,-100.00,North,-999,-999.0,-999.0,-999,0.03,,,0.24,,2013-11-04 03:54:00,
2013-11-03 22:04:00,40.0,-99.9,-100.00,North,-999,-999.0,-999.0,-999,0.03,,,0.24,,2013-11-04 04:04:00,
2013-11-03 22:14:00,40.0,-99.9,-100.00,North,-999,-999.0,-999.0,-999,0.03,,,0.24,,2013-11-04 04:14:00,
2013-11-03 22:24:00,40.0,-99.9,-100.00,North,-999,-999.0,-999.0,-999,0.03,,,0.24,,2013-11-04 04:24:00,
2013-11-03 22:30:00,40.0,-99.9,-100.00,North,-999,-999.0,-999.0,-999,0.03,,,0.27,,2013-11-04 04:30:00,
2013-11-03 22:53:00,40.0,-99.9,-100.00,North,-999,-999.0,-999.0,-999,0.03,,,0.27,,2013-11-04 04:53:00,
2013-11-03 23:03:00,40.0,-99.9,-100.00,North,-999,-999.0,-999.0,-999,0.03,,,0.27,,2013-11-04 05:03:00,
2013-11-03 23:14:00,40.0,-99.9,-100.00,North,-999,-999.0,-999.0,-999,0.03,,,0.27,,2013-11-04 05:14:00,
2013-11-03 23:24:00,40.0,-99.9,-100.00,North,-999,-999.0,-999.0,-999,0.03,,,0.27,,2013-11-04 05:24:00,
2013-11-03 23:30:00,41.0,-99.9,-100.00,North,-999,-999.0,-999.0,-999,0.02,,,0.29,,2013-11-04 05:30:00,
2013-11-03 23:54:00,41.0,-99.9,-100.00,North,-999,-999.0,-999.0,-999,0.02,,,0.29,,2013-11-04 05:54:00,